FENGYUN 1C DEB

Satellite information

Favourite Embed

Satellite Type and Status

DEBRISIN ORBIT

Key statistics

Satellite FENGYUN 1C DEB at a glance.

Uptime

9661

Days in orbit

Revolutions

≈ 14.3

Per day

Orbit

SSO

Sun Synchronous Orbit

Inclination

102.1

Latest

Satellite identification and parameters

Extended collection of information and parameters for FENGYUN 1C DEB.

Object identification

Identified? True

Debris? True

Object name: FENGYUN 1C DEB

International designator: 1999-025AEC

Object number (NORAD): 30413

Object ID (CCSDS): 30413

Country: PEOPLES REPUBLIC OF CHINA (PRC)

Current information (Y/N): Y

RCS size: SMALL

Orbital parameters

Period: 100.585 minutes

Inclination: 102.0639 deg

SMA: 7164.441 km

Apoapsis: 821.563 km

Periapsis: 751.049 km

RAAN: 146.2906 deg

Eccentricy: 0.0049211

Argument of periapsis: 351.167 deg

Mean anomaly: 20.7768 deg

Mean motion: 14.31624969 rev/day

Mean motion (dot): 0.00008233 rev/day2

B* drag term: 0.0030728797 1/REarth

Two-line elements (TLE)

Creation date: Oct. 21, 2025, 3:26 a.m.

Reference frame: TEME

Reference center: EARTH

Epoch: Oct. 20, 2025, 7:46 p.m. UTC

TLE line 0: 0 FENGYUN 1C DEB

TLE line 1: 1 30413U 99025AEC 25293.82401706 .00008233 00000-0 30729-2 0 9994

TLE line 2: 2 30413 102.0639 146.2906 0049211 351.1670 20.7768 14.31624969963825

Live tracking on map

Real-time ground track for satellite FENGYUN 1C DEB.

In-orbit conjunctions

A list of the most updated potential collisions computed for object FENGYUN 1C DEB.

Target Orbit TCA Probability of collision Miss distance Type
CBERS 2B SSO 2025-03-23 21:19:15 0.0003215283 952.0 (m) PAYLOAD
CZ-6A DEB LEO 2025-01-30 03:23:26 0.0001180465 406.0 (m) DEBRIS
THOR BURNER 2 R/B SSO 2024-11-08 15:39:04 0.0001031703 720.0 (m) ROCKET BODY

Associated space launch

Chinese polar orbiting meteorological satellite

FENGYUN 1C DEB was lifted into orbit during the mission ‘Long March 4B | Feng Yun 1C’, on board a Long March 4B space rocket.

The launch took place on May 10, 1999, 1:33 a.m. from Launch Complex 7.

For more information about the launch, click the button.

Launch to space Long March 4B | Feng Yun 1C
Long March 4B | Feng Yun 1C

Agency: N/A

Status: Launch Successful

Launch date: May 10, 1999, 1:33 a.m. UTC

Rocket: Long March 4B

Launch pad: Launch Complex 7

Location: Taiyuan Satellite Launch Center, People's Republic of China

...

Latest news about this satellite

There are no fresh news available about this satellite. Check back as we update our databases every day.


Newsletter sign-up

Weekly statistics, charts and insights to help you stay on top of the space industry.